Weather in Yuzhnoye

Russia / Omsk Oblast     54°00′24″N   74°01′17″E
temp.,
°C
wind,
m/s
gust,
m/s
humid.,
%
clouds,
%
prec.,
mm/h
press.,
hPa
HPBL,
m
8 march, mon
mon800:00+1ssw91689100 0.6 1007850
03:00+1ssw91787100 0.0 1005825
06:000ssw91687100 0.1 1003740
09:00−2ssw91594100 0.9 1002608
12:00−7wnw71191100 1.9 1006564
15:00−9wnw7128667 0.0 1011554
18:00−11w6128633 0.0 1016382
21:00−14wsw5129035 0.0 1018221
9 march, tue
tue900:00−12sw6128867 0.0 1020293
03:00−15ssw6128714 0.0 1020260
06:00−15sw6138721 0.0 1020279
09:00−14ssw7128958 0.0 1020329
12:00−11sw7128953 0.0 1020437
15:00−8sw8138691 0.0 1019593
18:00−8ssw7148552 0.0 1017476
21:00−10ssw7148657 0.0 1017348
10 march, wed
wed1000:00−10sw6128677 0.0 1017322
03:00−10sw488997 0.0 1016191
06:00−11sw339199 0.0 101551
09:00−10sse2292100 0.0 101463
12:00−8ese4690100 0.1 1011314
15:00−7ese61093100 0.9 1006468
18:00−8e5895100 4.3 1001411
21:00−8nw3396100 0.8 100058
11 march, thu
thu1100:00−10w6129395 0.9 1002343
03:00−12sw6119454 0.0 1004243
06:00−9sw7149356 0.1 1006471
09:00−10wsw7148645 0.0 1008530
12:00−10sw8138223 0.0 1011647
15:00−9sw812802 0.0 1012891
18:00−9ssw5118846 0.0 1010603
21:00−9ssw4109499 0.3 1010296
12 march, fri
fri1200:00−14wsw6148597 0.3 1012404
03:00−18sw613899 0.0 1013340
06:00−20sw6148822 0.0 1014452
09:00−20wsw713890 0.0 1016409
12:00−18wsw6109028 0.0 1018471
15:00−16wsw698894 0.0 1019629
18:00−16w599197 0.1 1019645
21:00−21w479670 0.0 102191